STARLINK-37205, 68332

Orbit data source: Space-Track

STARLINK-37205, 68332 is a payload satellite owned by SpaceX/Seattle (US) in LEO that was launched on Sun, 22 Mar 2026 UTC via an FALCON 9 launch vehicle from the Air Force Eastern Test Range (AFETR). Payload-class satellites include a variety of spacecraft equipped with specific instruments for various scientific and technological missions. These include communications satellites like Starlink; space stations such as the ISS; scientific satellites like the Hubble; Earth observation satellites from companies like Planet Labs, Umbra, and HawkEye 360; GPS; miniature CubeSats for education and research; and military/defense satellites.

Loading next visibility...
Identifier
68332, 2026-059M
Orbit
LEO
Country
Flag of USUS
Related business
Manufacturer
SpaceX/Seattle
Mission
Operational spacecraft
Bus & Motor
STARLINK V2MO, Unknown motor
Mass
575 kg wet, ~530 kg dry
Launch date (UTC)
2026-03-22 (3 months ago)
Launch vehicle
FALCON 9
Launch site
Air Force Eastern Test Range (AFETR)
Object type
Payload
Rocket body
Debris
Shape & HBR
Unknown shape, 17.7 m
Radar Cross Section
Large (>1 m²)

Expand to show TLE details & history
Last TLE update: 10 hours ago

TLE from 10 hours ago
0 STARLINK-37205
1 68332U 26059M   26171.43386557  .00008388  00000-0  29497-3 0  9993
2 68332  53.1579 231.2202 0001090  77.9680 282.1442 15.30203352 13903
Epoch: 2026-06-20T10:24Z
TLE epoch observation values (Epoch: 2026-06-20T10:24:45.985Z)
Latitude
-0.00008°
Longitude
166.37999°
Altitude
475.947 km
Speed
7.629 km/s
True Right ascension
15h 24m 52s
True Declination
0° 00' 00"
Sunlit
Object was in full shadow at epoch
Visualization orbit readout
Latitude
Unknown
Longitude
Unknown
Altitude
Unknown
Speed
Unknown
Apparent Right ascension
Unknown
Apparent Declination
Unknown
Sunlit
N/A
Visualization observer readout
Local Sidereal Time
07:14:04
Azimuth
Unknown
Elevation
Unknown
Doppler factor
Unknown
Orbital elements
Apogee altitude
476.209 km
Perigee altitude
474.715 km
Semi-major axis
6,853.599 km
Eccentricity
0.00011
Inclination
53.1579°
RAAN
231.2202°
Arg. of periapsis
77.968°
True anomaly
282.13199°
Mean anomaly
282.1442°
Eccentric anomaly
282.13809°
Mean motion
3.8253 °/min
Orbital period
94.11 mins
BSTAR
0.00029497
Loading maneuver chart data...
Computing Atmospheric mass density...
Loading historical data...
Loading historical data...
Loading historical data...
Loading historical data...
Loading historical data...
Loading historical data...
Loading historical data...

Documentation

Showing up to 5 results
|